This demonstration page uses our WeatherBlox Daily Observations layout. Learn more.

Left ArrowRight Arrow

Hourly Observations for April 2, 2021

Temp ( °F °C ) Dew Point ( °F °C ) Humidity (%) Winds ( mph kmh ) Pressure ( in mb ) Visibility ( mi km ) Precip ( " mm )
12:15 am 00:15 Clear 46 8 29 -1.6 51 51 SSE 15 24 30.15 1021 10 16.0934 0 0
12:35 am 00:35 Clear 46 7.6 29 -1.5 53 53 SSE 16 26 30.15 1021 10 16.0934 0 0
12:55 am 00:55 Clear 45 7.3 29 -1.5 54 54 SSE 14 22 30.16 1021 10 16.0934 0 0
1:15 am 01:15 Clear 45 7 29 -1.6 55 55 SSE 14 22 30.15 1021 10 16.0934 0 0
1:35 am 01:35 Clear 44 6.8 29 -1.5 56 56 SSE 15 24 30.15 1021 10 16.0934 0 0
1:55 am 01:55 Clear 44 6.7 29 -1.5 56 56 SSE 15 24 30.14 1021 10 16.0934 0 0
2:15 am 02:15 Clear 44 6.4 29 -1.5 57 57 SSE 13 20 30.15 1021 10 16.0934 0 0
2:35 am 02:35 Clear 43 6.3 29 -1.5 58 58 S 16 26 30.14 1021 10 16.0934 0 0
2:55 am 02:55 Clear 43 6.1 29 -1.5 59 59 S 16 26 30.13 1020 10 16.0934 0 0
3:15 am 03:15 Clear 43 5.9 29 -1.5 59 59 S 15 24 30.13 1020 10 16.0934 0 0
3:35 am 03:35 Clear 42 5.5 29 -1.5 61 61 S 14 22 30.12 1020 10 16.0934 0 0
3:55 am 03:55 Clear 42 5.5 30 -1.3 62 62 S 13 20 30.12 1020 10 16.0934 0 0
4:15 am 04:15 Clear 42 5.7 30 -1.2 62 62 S 15 24 30.11 1020 10 16.0934 0 0
4:35 am 04:35 Clear 42 5.5 30 -1.2 62 62 S 13 20 30.11 1020 10 16.0934 0 0
4:55 am 04:55 Clear 42 5.5 30 -1.2 62 62 S 16 26 30.1 1019 10 16.0934 0 0
5:15 am 05:15 Clear 42 5.5 30 -1.1 63 63 S 14 22 30.1 1019 10 16.0934 0 0
5:35 am 05:35 Clear 41 5 30 -1.2 65 65 S 13 20 30.1 1019 10 16.0934 0 0
5:55 am 05:55 Clear 41 5.2 30 -1.1 64 64 S 14 22 30.1 1019 10 16.0934 0 0
6:15 am 06:15 Clear 41 5 30 -1.3 64 64 S 16 26 30.1 1019 10 16.0934 0 0
6:35 am 06:35 Clear 40 4.6 30 -1.2 66 66 S 15 24 30.1 1019 10 16.0934 0 0
6:55 am 06:55 Clear 40 4.6 30 -1.3 66 66 S 16 26 30.09 1019 10 16.0934 0 0
7:15 am 07:15 Clear 40 4.5 30 -1.2 67 67 S 15 24 30.09 1019 10 16.0934 0 0
7:35 am 07:35 Sunny 39 4 30 -1.3 69 69 S 13 20 30.11 1020 10 16.0934 0 0
7:55 am 07:55 Sunny 40 4.3 30 -1.2 68 68 S 10 17 30.1 1019 10 16.0934 0 0
8:15 am 08:15 Sunny 41 4.8 31 -0.8 67 67 S 10 17 30.1 1019 10 16.0934 0 0
8:35 am 08:35 Sunny 43 6.1 31 -0.6 63 63 S 13 20 30.09 1019 10 16.0934 0 0
8:55 am 08:55 Sunny 46 7.5 31 -0.6 57 57 S 13 20 30.08 1018 10 16.0934 0 0
9:15 am 09:15 Sunny 48 8.8 30 -1 51 51 S 20 31 30.06 1018 10 16.0934 0 0
9:35 am 09:35 Sunny 50 9.8 30 -0.9 48 48 SSW 17 28 30.05 1018 10 16.0934 0 0
9:55 am 09:55 Sunny 51 10.8 29 -1.4 43 43 SSW 17 28 30.05 1017 10 16.0934 0 0
10:15 am 10:15 Sunny 53 11.4 29 -1.6 41 41 SSW 17 28 30.05 1018 10 16.0934 0 0
10:35 am 10:35 Sunny 54 12.3 29 -1.8 38 38 SSW 17 28 30.03 1017 10 16.0934 0 0
10:55 am 10:55 Sunny 56 13.5 29 -1.8 35 35 SSW 17 28 30.01 1016 10 16.0934 0 0
11:15 am 11:15 Sunny 58 14.6 28 -2.1 32 32 SSW 20 31 30 1016 10 16.0934 0 0
11:35 am 11:35 Sunny 59 15.1 28 -2.2 31 31 SSW 16 26 30 1016 10 16.0934 0 0
11:55 am 11:55 Sunny 61 16 29 -1.9 29 29 S 15 24 29.98 1015 10 16.0934 0 0
12:15 pm 12:15 Sunny 62 16.9 29 -1.8 28 28 SSW 17 28 29.96 1015 10 16.0934 0 0
12:35 pm 12:35 Sunny 64 17.6 29 -1.8 27 27 S 18 30 29.96 1014 10 16.0934 0 0
12:55 pm 12:55 Sunny 65 18.6 29 -1.9 25 25 S 20 31 29.94 1014 10 16.0934 0 0
1:15 pm 13:15 Sunny 66 19.1 29 -1.9 24 24 S 20 31 29.93 1014 10 16.0934 0 0
1:35 pm 13:35 Sunny 68 20.2 29 -1.6 23 23 S 21 33 29.92 1013 10 16.0934 0 0
1:55 pm 13:55 Sunny 69 20.7 29 -1.7 22 22 SSW 23 37 29.9 1013 10 16.0934 0 0
2:15 pm 14:15 Sunny 71 21.4 29 -1.7 21 21 SSW 22 35 29.89 1012 10 16.0934 0 0
2:35 pm 14:35 Sunny 72 22.2 29 -1.9 20 20 SSW 21 33 29.87 1011 10 16.0934 0 0
2:55 pm 14:55 Sunny 72 22.3 28 -2.1 20 20 S 24 39 29.87 1011 10 16.0934 0 0
3:15 pm 15:15 Sunny 73 23 28 -2.2 19 19 SSW 23 37 29.85 1011 10 16.0934 0 0
3:35 pm 15:35 Sunny 74 23.6 29 -1.8 18 18 SSW 21 33 29.85 1011 10 16.0934 0 0
3:55 pm 15:55 Sunny 75 24.1 28 -2 18 18 SSW 22 35 29.84 1011 10 16.0934 0 0
4:15 pm 16:15 Sunny 76 24.3 29 -1.9 18 18 SSW 18 30 29.84 1011 10 16.0934 0 0
4:35 pm 16:35 Sunny 77 24.9 29 -1.4 18 18 SSW 16 26 29.83 1010 10 16.0934 0 0
4:55 pm 16:55 Sunny 76 24.5 29 -1.9 17 17 S 16 26 29.83 1010 10 16.0934 0 0
5:15 pm 17:15 Sunny 76 24.6 29 -1.5 18 18 SSW 20 31 29.83 1010 10 16.0934 0 0
5:35 pm 17:35 Sunny 75 24 28 -2 18 18 SSW 20 31 29.83 1010 10 16.0934 0 0
5:55 pm 17:55 Sunny 75 24.1 29 -1.6 18 18 SSW 22 35 29.82 1010 10 16.0934 0 0
6:15 pm 18:15 Sunny 75 23.7 29 -1.7 18 18 SSW 20 31 29.84 1010 10 16.0934 0 0
6:35 pm 18:35 Sunny 74 23.6 29 -1.7 19 19 SSW 20 31 29.84 1010 10 16.0934 0 0
6:55 pm 18:55 Sunny 74 23.2 29 -1.6 19 19 S 17 28 29.84 1011 10 16.0934 0 0
7:15 pm 19:15 Sunny 73 22.6 29 -1.4 20 20 S 17 28 29.85 1011 10 16.0934 0 0
7:35 pm 19:35 Sunny 71 21.6 29 -1.5 21 21 S 15 24 29.84 1011 10 16.0934 0 0
7:55 pm 19:55 Sunny 68 19.9 30 -0.9 25 25 S 14 22 29.86 1011 10 16.0934 0 0
8:15 pm 20:15 Clear 65 18.2 31 -0.4 29 29 S 12 19 29.89 1012 10 16.0934 0 0
8:35 pm 20:35 Clear 63 17.4 32 0 31 31 S 12 19 29.91 1013 10 16.0934 0 0
8:55 pm 20:55 Clear 61 16.3 32 0 33 33 S 12 19 29.92 1013 10 16.0934 0 0
9:15 pm 21:15 Clear 60 15.8 32 0.1 35 35 S 13 20 29.93 1014 10 16.0934 0 0
9:35 pm 21:35 Clear 60 15.3 32 0.1 36 36 S 14 22 29.95 1014 10 16.0934 0 0
9:55 pm 21:55 Clear 58 14.5 32 0 37 37 S 12 19 29.96 1015 10 16.0934 0 0
10:15 pm 22:15 Clear 59 14.8 32 0 37 37 S 14 22 29.96 1015 10 16.0934 0 0
10:35 pm 22:35 Clear 58 14.2 32 0 38 38 S 15 24 29.97 1015 10 16.0934 0 0
10:55 pm 22:55 Clear 58 14.3 32 0 38 38 S 15 24 29.97 1015 10 16.0934 0 0
11:15 pm 23:15 Clear 56 13.5 32 0.2 40 40 S 15 24 29.98 1015 10 16.0934 0 0
11:35 pm 23:35 Clear 56 13.2 33 0.5 42 42 S 15 24 29.98 1015 10 16.0934 0 0
11:55 pm 23:55 Clear 55 12.7 33 0.6 44 44 S 15 24 29.99 1016 10 16.0934 0 0

Powered by AerisWeather